Weather History for Covington, KY

Change the Weather History Date:

Sunday, December 29, 2013

  Actual Average Record
Temperature  
Mean Temperature 38 °F 31 °F  
Max Temperature 44 °F 39 °F 69 °F (1989)
Min Temperature 32 °F 24 °F -5 °F (1880)
Degree Days  
Heating Degree Days 27 34  
Month to date heating degree days 840 891  
Since 1 July heating degree days 1876 1851  
Cooling Degree Days 0 0  
Month to date cooling degree days 0 0  
Year to date cooling degree days 1150 1121  
Moisture  
Dew Point 36 °F    
Average Humidity 77    
Maximum Humidity 100    
Minimum Humidity 53    
Precipitation  
Precipitation 0.29 in 0.11 in 1.09 in (1910)
Month to date precipitation 4.93 3.16  
Year to date precipitation 49.50 42.31  
Snow  
Snow T in 0.20 in 4.20 in (1902)
Month to date snowfall 10.3 4.4  
Since 1 July snowfall 12.7 5.2  
Snow Depth 0.00 in    
Sea Level Pressure  
Sea Level Pressure 29.91 in    
Wind  
Wind Speed 8 mph (WSW)    
Max Wind Speed 21 mph    
Max Gust Speed 26 mph    
Visibility 6 miles    
Events Rain , Snow    
T = Trace of Precipitation, MM = Missing Value Source: NWS Daily Summary

Daily Weather History Graph

Daily Weather History Graph

Search for Another Location

Airport:

Trip Planner

Search our weather history database for the weather conditions in past years. The results will help you decide how hot, cold, wet, or windy it might be!

Date:

Astronomy

Dec. 29, 2013 Rise Set
Actual Time 7:57 AM EST 5:24 PM EST
Civil Twilight 7:27 AM EST 5:54 PM EST
Nautical Twilight 6:53 AM EST 6:28 PM EST
Astronomical Twilight 6:21 AM EST 7:00 PM EST
Moon 4:40 AM EST (12/29) 3:01 PM EST (12/29)
Length of Visible Light 10h 27m
Length of Day
9h 27m
Waning Crescent, 11% of the Moon is Illuminated
Dec 29
Waning Crescent
Jan 1
New
Jan 7
First Quarter
Jan 15
Full
Jan 24
Last Quarter

Hourly Weather History & Observations

Time (EST) Temp. Windchill Dew Point Humidity Pressure Visibility Wind Dir Wind Speed Gust Speed Precip Events Conditions
12:52 AM 43.0 °F 38.8 °F 28.0 °F 56% 29.99 in 10.0 mi South 6.9 mph - 0.00 in Rain Light Rain
1:52 AM 42.1 °F - 30.0 °F 62% 29.95 in 10.0 mi Calm Calm - 0.00 in Rain Light Rain
2:52 AM 39.0 °F 35.7 °F 35.1 °F 86% 29.94 in 9.0 mi SSE 4.6 mph - 0.02 in Rain Light Rain
3:52 AM 37.9 °F - 36.0 °F 93% 29.93 in 5.0 mi Calm Calm - 0.04 in Rain Light Rain
4:52 AM 37.9 °F - 37.0 °F 97% 29.90 in 5.0 mi Calm Calm - 0.06 in Rain Light Rain
5:00 AM 37.4 °F - 37.4 °F 100% 29.89 in 5.0 mi Calm Calm - 0.00 in Rain Light Rain
5:27 AM 37.4 °F 34.9 °F 37.4 °F 100% 29.90 in 4.0 mi WSW 3.5 mph - 0.03 in Rain Light Rain
5:52 AM 37.9 °F - 37.0 °F 97% 29.88 in 4.0 mi Calm Calm - 0.05 in Rain Light Rain
6:01 AM 37.4 °F 34.9 °F 35.6 °F 93% 29.87 in 4.0 mi South 3.5 mph - 0.00 in Rain Light Rain
6:27 AM 37.4 °F 33.8 °F 37.4 °F 100% 29.88 in 7.0 mi SSW 4.6 mph - 0.01 in Rain Light Rain
6:50 AM 37.4 °F 34.9 °F 37.4 °F 100% 29.87 in 7.0 mi South 3.5 mph - 0.02 in Rain Light Rain
6:52 AM 37.9 °F 35.5 °F 37.0 °F 97% 29.88 in 7.0 mi South 3.5 mph - 0.02 in Rain Light Rain
7:52 AM 37.9 °F 35.5 °F 37.0 °F 97% 29.88 in 5.0 mi WSW 3.5 mph - 0.01 in Rain Light Rain
8:40 AM 37.4 °F 33.8 °F 37.4 °F 100% 29.87 in 2.5 mi WSW 4.6 mph - 0.02 in Rain Light Rain
8:52 AM 37.9 °F 34.4 °F 37.9 °F 100% 29.88 in 2.5 mi WSW 4.6 mph - 0.03 in Rain Light Rain
10:52 AM 39.0 °F 34.8 °F 37.9 °F 96% 29.87 in 2.5 mi SW 5.8 mph - 0.03 in Rain Light Rain
11:40 AM 39.2 °F 33.0 °F 39.2 °F 100% 29.86 in 7.0 mi SW 9.2 mph - 0.00 in   Overcast
11:52 AM 41.0 °F 35.8 °F 39.0 °F 93% 29.86 in 6.0 mi WSW 8.1 mph - 0.00 in Rain Light Rain
12:52 PM 41.0 °F 34.7 °F 39.0 °F 93% 29.83 in 8.0 mi WSW 10.4 mph - 0.00 in   Overcast
1:52 PM 43.0 °F 37.7 °F 39.0 °F 86% 29.83 in 10.0 mi WSW 9.2 mph - 0.00 in   Overcast
2:35 PM 42.8 °F 38.0 °F 39.2 °F 87% 29.82 in 10.0 mi SW 8.1 mph - N/A   Overcast
2:52 PM 42.1 °F 37.7 °F 39.0 °F 89% 29.83 in 10.0 mi WSW 6.9 mph - N/A   Overcast
3:52 PM 43.0 °F 37.7 °F 37.9 °F 82% 29.85 in 10.0 mi WSW 9.2 mph - N/A   Overcast
4:33 PM 42.8 °F 41.1 °F 39.2 °F 87% 29.85 in 10.0 mi WSW 3.5 mph - N/A   Overcast
4:52 PM 43.0 °F 40.3 °F 39.0 °F 86% 29.86 in 10.0 mi WSW 4.6 mph - N/A   Overcast
5:52 PM 43.0 °F 35.7 °F 37.9 °F 82% 29.89 in 9.0 mi West 15.0 mph - N/A   Overcast
6:52 PM 37.9 °F 27.6 °F 33.1 °F 83% 29.94 in 5.0 mi WNW 20.7 mph 26.5 mph N/A   Haze
7:52 PM 35.1 °F 24.8 °F 32.0 °F 89% 29.98 in 4.0 mi WNW 17.3 mph 24.2 mph 0.00 in   Light Drizzle
8:52 PM 34.0 °F 23.4 °F 32.0 °F 92% 30.01 in 6.0 mi WNW 17.3 mph - 0.00 in   Overcast
9:52 PM 33.1 °F 24.9 °F 30.0 °F 89% 30.03 in 10.0 mi West 10.4 mph - N/A   Overcast
10:52 PM 33.1 °F 23.4 °F 30.0 °F 89% 30.04 in 10.0 mi West 13.8 mph - N/A   Overcast
11:49 PM 32.0 °F 23.0 °F 30.2 °F 93% 30.03 in 1.5 mi WNW 11.5 mph - 0.00 in Snow Light Snow
11:52 PM 32.0 °F 23.0 °F 30.9 °F 96% 30.04 in 1.0 mi WNW 11.5 mph - 0.00 in Snow Light Snow
11:54 PM 32.0 °F 24.8 °F 30.2 °F 93% 30.03 in 0.8 mi WNW 8.1 mph - 0.00 in Snow Light Snow